When you browse on this site, cookies collect data to enhance your experience and personalize the content and advertising you see.
Visit our Privacy Policy to learn more. By continuing to use the site, you agree to this use of cookies and data.
  • Em Portugal
  • Lista de países
  • Para 7 dias
  • Temperatura da água
  • Mapa do tempo
  • Widgets de tempo
  • user-avatar
    Iniciar Sessão

    Previsão horária em Kanina

    Hoje, 20 Setembro, Sexta-feira

    Tempo Temperatura Precipitação Vento Pressão Humidade
    00:00 +3°C° 0 mm 2 m/s 717 mmHg 93%
    01:00 +3°C° 0 mm 2 m/s 717 mmHg 93%
    02:00 +2°C° 0 mm 2 m/s 717 mmHg 93%
    03:00 +2°C° 0 mm 2 m/s 717 mmHg 93%
    04:00 +2°C° 0 mm 2 m/s 717 mmHg 93%
    05:00 +3°C° 0 mm 2 m/s 717 mmHg 91%
    06:00 +4°C° 0 mm 2 m/s 717 mmHg 89%
    07:00 +5°C° 0 mm 2 m/s 718 mmHg 87%
    08:00 +6°C° 0 mm 2 m/s 718 mmHg 79%
    09:00 +8°C° 0 mm 3 m/s 718 mmHg 72%
    10:00 +8°C° 0 mm 4 m/s 718 mmHg 65%
    11:00 +10°C° 0.2 mm 4 m/s 718 mmHg 62%
    12:00 +11°C° 0.2 mm 4 m/s 718 mmHg 59%
    13:00 +10°C° 0.2 mm 5 m/s 718 mmHg 56%
    14:00 +11°C° 0.1 mm 4 m/s 717 mmHg 59%
    15:00 +10°C° 0.1 mm 3 m/s 717 mmHg 62%
    16:00 +10°C° 0.1 mm 3 m/s 717 mmHg 64%
    17:00 +8°C° 0 mm 2 m/s 717 mmHg 71%
    18:00 +7°C° 0 mm 2 m/s 717 mmHg 78%
    19:00 +6°C° 0 mm 1 m/s 717 mmHg 85%
    20:00 +6°C° 0 mm 1 m/s 717 mmHg 85%
    21:00 +6°C° 0 mm 1 m/s 717 mmHg 86%
    22:00 +6°C° 0 mm 1 m/s 717 mmHg 87%
    23:00 +5°C° 0 mm 1 m/s 717 mmHg 87%

    Amanhã, 21 Setembro, Sábado

    Tempo Temperatura Precipitação Vento Pressão Humidade
    00:00 +5°C° 0 mm 1 m/s 717 mmHg 88%
    01:00 +4°C° 0 mm 2 m/s 717 mmHg 89%
    02:00 +5°C° 0 mm 1 m/s 717 mmHg 89%
    03:00 +5°C° 0 mm 1 m/s 717 mmHg 89%
    04:00 +4°C° 0 mm 1 m/s 717 mmHg 89%
    05:00 +5°C° 0 mm 1 m/s 717 mmHg 85%
    06:00 +6°C° 0 mm 1 m/s 717 mmHg 82%
    07:00 +7°C° 0 mm 1 m/s 718 mmHg 78%
    08:00 +10°C° 0 mm 1 m/s 718 mmHg 69%
    09:00 +12°C° 0 mm 1 m/s 718 mmHg 61%
    10:00 +15°C° 0 mm 1 m/s 718 mmHg 52%
    11:00 +15°C° 0 mm 1 m/s 718 mmHg 50%
    12:00 +16°C° 0 mm 1 m/s 718 mmHg 48%
    13:00 +18°C° 0 mm 1 m/s 718 mmHg 47%
    14:00 +18°C° 0 mm 1 m/s 717 mmHg 50%
    15:00 +16°C° 0 mm 1 m/s 717 mmHg 54%
    16:00 +16°C° 0 mm 1 m/s 717 mmHg 58%
    17:00 +14°C° 0 mm 1 m/s 716 mmHg 65%
    18:00 +12°C° 0 mm 1 m/s 716 mmHg 72%
    19:00 +9°C° 0 mm 1 m/s 716 mmHg 79%
    20:00 +9°C° 0 mm 1 m/s 716 mmHg 80%
    21:00 +9°C° 0 mm 1 m/s 716 mmHg 81%
    22:00 +8°C° 0 mm 1 m/s 716 mmHg 82%
    23:00 +8°C° 0 mm 1 m/s 716 mmHg 82%

    Depois de amanhã, 22 Setembro, Domingo

    Tempo Temperatura Precipitação Vento Pressão Humidade
    00:00 +8°C° 0 mm 1 m/s 716 mmHg 82%
    01:00 +8°C° 0 mm 1 m/s 715 mmHg 82%
    02:00 +7°C° 0 mm 1 m/s 715 mmHg 82%
    03:00 +7°C° 0 mm 1 m/s 715 mmHg 82%
    04:00 +7°C° 0 mm 1 m/s 715 mmHg 83%
    05:00 +8°C° 0 mm 1 m/s 715 mmHg 79%
    06:00 +9°C° 0 mm 1 m/s 715 mmHg 76%
    07:00 +10°C° 0 mm 1 m/s 715 mmHg 73%
    08:00 +12°C° 0 mm 1 m/s 715 mmHg 66%
    09:00 +15°C° 0 mm 1 m/s 715 mmHg 58%
    10:00 +18°C° 0 mm 1 m/s 715 mmHg 51%
    11:00 +19°C° 0 mm 1 m/s 715 mmHg 49%
    12:00 +20°C° 0 mm 1 m/s 715 mmHg 47%
    13:00 +21°C° 0 mm 1 m/s 715 mmHg 45%
    14:00 +20°C° 0 mm 1 m/s 714 mmHg 49%
    15:00 +20°C° 0 mm 1 m/s 713 mmHg 53%
    16:00 +19°C° 0 mm 1 m/s 713 mmHg 58%
    17:00 +16°C° 0 mm 1 m/s 712 mmHg 64%
    18:00 +14°C° 0 mm 1 m/s 712 mmHg 70%
    19:00 +11°C° 0 mm 1 m/s 712 mmHg 76%
    20:00 +11°C° 0 mm 1 m/s 712 mmHg 76%
    21:00 +10°C° 0 mm 1 m/s 712 mmHg 76%
    22:00 +10°C° 0 mm 1 m/s 712 mmHg 76%
    23:00 +9°C° 0 mm 1 m/s 711 mmHg 75%

    23 Setembro, Segunda-feira

    Tempo Temperatura Precipitação Vento Pressão Humidade
    00:00 +9°C° 0 mm 1 m/s 711 mmHg 75%
    01:00 +9°C° 0 mm 1 m/s 711 mmHg 74%
    02:00 +9°C° 0 mm 1 m/s 711 mmHg 71%
    03:00 +10°C° 0 mm 1 m/s 710 mmHg 68%
    04:00 +10°C° 0 mm 1 m/s 710 mmHg 65%
    05:00 +11°C° 0 mm 1 m/s 710 mmHg 63%
    06:00 +11°C° 0 mm 1 m/s 710 mmHg 62%
    07:00 +12°C° 0 mm 1 m/s 710 mmHg 60%
    08:00 +13°C° 0 mm 2 m/s 710 mmHg 60%
    09:00 +13°C° 0 mm 2 m/s 710 mmHg 61%
    10:00 +14°C° 0 mm 2 m/s 710 mmHg 61%
    11:00 +14°C° 0 mm 2 m/s 710 mmHg 63%
    12:00 +14°C° 0 mm 2 m/s 710 mmHg 66%
    13:00 +14°C° 0 mm 2 m/s 709 mmHg 69%
    14:00 +14°C° 0 mm 2 m/s 709 mmHg 71%
    15:00 +14°C° 0 mm 2 m/s 709 mmHg 72%
    16:00 +14°C° 0 mm 1 m/s 709 mmHg 74%
    17:00 +13°C° 0 mm 1 m/s 709 mmHg 76%
    18:00 +13°C° 0 mm 1 m/s 709 mmHg 78%
    19:00 +12°C° 0 mm 1 m/s 709 mmHg 80%
    20:00 +12°C° 0 mm 1 m/s 709 mmHg 80%
    21:00 +12°C° 0 mm 1 m/s 709 mmHg 81%
    22:00 +12°C° 0 mm 1 m/s 709 mmHg 81%
    23:00 +11°C° 0 mm 1 m/s 708 mmHg 82%

    24 Setembro, Terça-feira

    Tempo Temperatura Precipitação Vento Pressão Humidade
    00:00 +11°C° 0 mm 1 m/s 708 mmHg 83%
    01:00 +11°C° 0 mm 1 m/s 708 mmHg 83%
    02:00 +11°C° 0 mm 1 m/s 708 mmHg 84%
    03:00 +10°C° 0 mm 0 m/s 708 mmHg 84%
    04:00 +10°C° 0 mm 0 m/s 708 mmHg 84%
    05:00 +10°C° 0 mm 0 m/s 708 mmHg 83%
    06:00 +10°C° 0 mm 0 m/s 708 mmHg 82%
    07:00 +11°C° 0 mm 0 m/s 708 mmHg 82%
    08:00 +11°C° 0 mm 0 m/s 708 mmHg 80%
    09:00 +12°C° 0 mm 0 m/s 708 mmHg 79%
    10:00 +12°C° 0 mm 0 m/s 708 mmHg 78%
    11:00 +12°C° 0 mm 0 m/s 708 mmHg 79%
    12:00 +12°C° 0 mm 0 m/s 708 mmHg 80%
    13:00 +13°C° 0 mm 1 m/s 707 mmHg 81%
    14:00 +13°C° 0 mm 1 m/s 707 mmHg 81%
    15:00 +13°C° 0 mm 1 m/s 708 mmHg 81%
    16:00 +13°C° 0 mm 1 m/s 708 mmHg 81%
    17:00 +12°C° 0 mm 1 m/s 708 mmHg 84%
    18:00 +11°C° 0 mm 1 m/s 708 mmHg 88%
    19:00 +10°C° 0 mm 1 m/s 708 mmHg 91%
    20:00 +10°C° 0 mm 1 m/s 708 mmHg 91%
    21:00 +10°C° 0 mm 1 m/s 708 mmHg 92%
    22:00 +8°C° 0 mm 0 m/s 708 mmHg 92%
    23:00 +8°C° 0 mm 0 m/s 708 mmHg 93%

    25 Setembro, Quarta-feira

    Tempo Temperatura Precipitação Vento Pressão Humidade
    00:00 +8°C° 0 mm 0 m/s 708 mmHg 93%
    01:00 +8°C° 0 mm 0 m/s 708 mmHg 93%
    02:00 +8°C° 0 mm 0 m/s 708 mmHg 93%
    03:00 +8°C° 0 mm 0 m/s 708 mmHg 93%
    04:00 +7°C° 0 mm 0 m/s 707 mmHg 93%
    05:00 +8°C° 0 mm 0 m/s 708 mmHg 91%
    06:00 +9°C° 0 mm 0 m/s 708 mmHg 89%
    07:00 +10°C° 0 mm 0 m/s 708 mmHg 87%
    08:00 +13°C° 0 mm 1 m/s 708 mmHg 81%
    09:00 +15°C° 0 mm 1 m/s 708 mmHg 75%
    10:00 +18°C° 0 mm 1 m/s 709 mmHg 68%
    11:00 +18°C° 0 mm 1 m/s 709 mmHg 66%
    12:00 +19°C° 0 mm 1 m/s 708 mmHg 63%
    13:00 +20°C° 0 mm 1 m/s 708 mmHg 61%
    14:00 +19°C° 0.1 mm 1 m/s 708 mmHg 66%
    15:00 +18°C° 0.1 mm 1 m/s 708 mmHg 71%
    16:00 +18°C° 0.1 mm 1 m/s 708 mmHg 77%
    17:00 +15°C° 0.1 mm 1 m/s 708 mmHg 81%
    18:00 +14°C° 0.1 mm 1 m/s 707 mmHg 85%
    19:00 +13°C° 0.1 mm 1 m/s 707 mmHg 90%
    20:00 +13°C° 0.1 mm 1 m/s 708 mmHg 89%
    21:00 +13°C° 0.1 mm 1 m/s 708 mmHg 89%
    22:00 +13°C° 0.1 mm 1 m/s 708 mmHg 88%
    23:00 +13°C° 0.1 mm 1 m/s 708 mmHg 89%
    Mostrar mais